JAL010 OMDB-VOMM

Flight info

Callsign JAL010
Flight time 1h 11m
Altitude 39000
Route ANVIX L223 TARDI N629 TOTOX P574 OPAMO OPAMO2F
Aircraft A20N/M-SDE2E3FGHIRWXY/LB1

Departure

Time 2026-04-25 18:30
Airport Dubai International Airport (OMDB)

Arrival

Time 2026-04-25 19:41
Airport Chennai International Airport (VOMM)
Time Latitude Longitude Altitude Speed Heading
2026-04-25 17:58 25.23480 55.38896 24 ft 0 kts 225°
2026-04-25 18:08 25.23481 55.38897 25 ft 2 kts 225°
2026-04-25 18:09 25.23491 55.38907 24 ft 2 kts 231°
2026-04-25 18:09 25.23499 55.38919 25 ft 1 kts 234°
2026-04-25 18:09 25.23506 55.38930 26 ft 2 kts 238°
2026-04-25 18:09 25.23508 55.38933 26 ft 2 kts 240°
2026-04-25 18:10 25.23517 55.38953 25 ft 1 kts 253°
2026-04-25 18:10 25.23520 55.38965 25 ft 2 kts 263°
2026-04-25 18:10 25.23521 55.38978 24 ft 2 kts 274°
2026-04-25 18:10 25.23520 55.38990 24 ft 2 kts 286°
2026-04-25 18:11 25.23516 55.39002 24 ft 2 kts 296°
2026-04-25 18:11 25.23511 55.39013 26 ft 2 kts 303°
2026-04-25 18:11 25.23509 55.39016 23 ft 0 kts 304°
2026-04-25 18:14 25.23510 55.39016 23 ft 1 kts 304°
2026-04-25 18:14 25.23526 55.38990 21 ft 1 kts 304°
2026-04-25 18:14 25.23548 55.38972 23 ft 5 kts 345°
2026-04-25 18:14 25.23588 55.38997 23 ft 10 kts 37°
2026-04-25 18:15 25.23615 55.39055 22 ft 8 kts 127°
2026-04-25 18:15 25.23572 55.39130 22 ft 15 kts 122°
2026-04-25 18:15 25.23506 55.39247 23 ft 21 kts 121°
2026-04-25 18:15 25.23423 55.39397 24 ft 26 kts 123°
2026-04-25 18:16 25.23328 55.39565 24 ft 10 kts 123°
2026-04-25 18:16 25.23304 55.39624 21 ft 11 kts 95°
2026-04-25 18:16 25.23334 55.39673 22 ft 0 kts 21°
2026-04-25 18:21 25.23352 55.39681 24 ft 6 kts 21°
2026-04-25 18:21 25.23406 55.39716 22 ft 12 kts 31°
2026-04-25 18:21 25.23497 55.39777 21 ft 17 kts 31°
2026-04-25 18:21 25.23578 55.39814 21 ft 11 kts 351°
2026-04-25 18:22 25.23627 55.39745 23 ft 10 kts 304°
2026-04-25 18:22 25.23645 55.39725 21 ft 11 kts 312°
2026-04-25 18:22 25.23688 55.39644 24 ft 0 kts 301°
2026-04-25 18:23 25.23700 55.39622 24 ft 7 kts 301°
2026-04-25 18:23 25.23722 55.39582 23 ft 11 kts 301°
2026-04-25 18:23 25.23795 55.39449 23 ft 19 kts 301°
2026-04-25 18:24 25.23878 55.39310 24 ft 24 kts 297°
2026-04-25 18:24 25.23971 55.39141 22 ft 28 kts 301°
2026-04-25 18:24 25.24082 55.38947 23 ft 32 kts 302°
2026-04-25 18:24 25.24165 55.38804 23 ft 34 kts 302°
2026-04-25 18:25 25.24266 55.38624 24 ft 15 kts 303°
2026-04-25 18:25 25.24329 55.38508 22 ft 20 kts 299°
2026-04-25 18:25 25.24396 55.38389 25 ft 0 kts 302°
2026-04-25 18:25 25.24398 55.38387 25 ft 2 kts 302°
2026-04-25 18:26 25.24419 55.38348 23 ft 9 kts 302°
2026-04-25 18:26 25.24448 55.38296 24 ft 14 kts 302°
2026-04-25 18:26 25.24510 55.38188 24 ft 20 kts 302°
2026-04-25 18:26 25.24587 55.38051 23 ft 9 kts 302°
2026-04-25 18:27 25.24589 55.38047 24 ft 1 kts 302°
2026-04-25 18:27 25.24605 55.38039 27 ft 4 kts 359°
2026-04-25 18:27 25.24652 55.38051 23 ft 9 kts 18°
2026-04-25 18:27 25.24699 55.38092 26 ft 9 kts 37°
2026-04-25 18:28 25.24764 55.38101 30 ft 7 kts 323°
2026-04-25 18:28 25.24781 55.38071 30 ft 0 kts 301°
2026-04-25 18:29 25.25047 55.37593 27 ft 131 kts 301°
2026-04-25 18:29 25.25672 55.36456 179 ft 203 kts 301°
2026-04-25 18:30 25.28222 55.31878 3508 ft 228 kts 301°
2026-04-25 18:30 25.28990 55.30343 4738 ft 231 kts 288°
2026-04-25 18:30 25.29109 55.28583 6290 ft 231 kts 259°
2026-04-25 18:30 25.28524 55.26909 7680 ft 238 kts 245°
2026-04-25 18:31 25.27809 55.25261 9031 ft 243 kts 244°
2026-04-25 18:31 25.27064 55.23565 10363 ft 248 kts 244°
2026-04-25 18:31 25.26308 55.21827 11655 ft 254 kts 244°
2026-04-25 18:31 25.25541 55.20041 12906 ft 259 kts 245°
2026-04-25 18:32 25.24658 55.18288 14099 ft 265 kts 230°
2026-04-25 18:32 25.23189 55.17052 15242 ft 271 kts 203°
2026-04-25 18:32 25.21327 55.16671 16345 ft 277 kts 179°
2026-04-25 18:32 25.19390 55.17060 17185 ft 293 kts 156°
2026-04-25 18:33 25.17726 55.18379 18150 ft 300 kts 130°
2026-04-25 18:33 25.16612 55.20357 19111 ft 309 kts 116°
2026-04-25 18:33 25.15645 55.22585 19613 ft 332 kts 115°
2026-04-25 18:33 25.14645 55.24922 20496 ft 339 kts 115°
2026-04-25 18:34 25.13612 55.27236 21461 ft 343 kts 116°
2026-04-25 18:34 25.12512 55.29602 22370 ft 348 kts 117°
2026-04-25 18:34 25.11378 55.31983 23241 ft 354 kts 118°
2026-04-25 18:34 25.10274 55.34433 24099 ft 359 kts 114°
2026-04-25 18:35 25.09236 55.36957 24694 ft 364 kts 114°
2026-04-25 18:35 25.08185 55.39505 24946 ft 366 kts 114°
2026-04-25 18:35 25.07129 55.42062 25051 ft 367 kts 114°
2026-04-25 18:35 25.06071 55.44727 25068 ft 393 kts 113°
2026-04-25 18:36 25.04971 55.47602 25150 ft 417 kts 112°
2026-04-25 18:36 25.03834 55.50589 25698 ft 425 kts 112°
2026-04-25 18:36 25.02692 55.53575 26422 ft 429 kts 113°
2026-04-25 18:36 25.01383 55.56542 27082 ft 433 kts 120°
2026-04-25 18:37 24.99830 55.59418 27712 ft 438 kts 121°
2026-04-25 18:37 24.98259 55.62313 28312 ft 442 kts 121°
2026-04-25 18:37 24.96676 55.65239 28879 ft 446 kts 121°
2026-04-25 18:37 24.95083 55.68183 29418 ft 450 kts 121°
2026-04-25 18:38 24.93373 55.71096 29938 ft 454 kts 126°
2026-04-25 18:38 24.91496 55.73913 30463 ft 457 kts 126°
2026-04-25 18:38 24.89608 55.76755 30982 ft 461 kts 126°
2026-04-25 18:38 24.87710 55.79616 31547 ft 463 kts 126°
2026-04-25 18:39 24.85835 55.82442 32192 ft 462 kts 126°
2026-04-25 18:39 24.83940 55.85298 32853 ft 461 kts 126°
2026-04-25 18:39 24.82038 55.88131 33476 ft 460 kts 127°
2026-04-25 18:39 24.80123 55.90954 34064 ft 459 kts 127°
2026-04-25 18:40 24.78118 55.93700 34647 ft 458 kts 132°
2026-04-25 18:40 24.75880 55.96190 35214 ft 456 kts 137°
2026-04-25 18:40 24.73554 55.98563 35731 ft 456 kts 137°
2026-04-25 18:40 24.71260 56.00914 36235 ft 456 kts 137°
2026-04-25 18:41 24.68943 56.03295 36704 ft 456 kts 137°
2026-04-25 18:41 24.63503 56.08895 37748 ft 456 kts 137°
2026-04-25 18:41 24.54510 56.18781 39044 ft 459 kts 130°
2026-04-25 18:41 24.46251 56.29317 39090 ft 455 kts 131°
2026-04-25 18:42 24.32577 56.46679 39090 ft 451 kts 131°
2026-04-25 18:42 24.15069 56.72395 39093 ft 451 kts 126°
2026-04-25 18:43 24.00251 56.94598 39093 ft 450 kts 126°
2026-04-25 18:43 23.85549 57.16533 39091 ft 450 kts 126°
2026-04-25 18:44 23.70696 57.38537 39087 ft 449 kts 128°
2026-04-25 18:44 23.55068 57.59909 39086 ft 450 kts 128°
2026-04-25 18:45 23.39458 57.81256 39084 ft 450 kts 129°
2026-04-25 18:45 23.23822 58.02686 39090 ft 453 kts 124°
2026-04-25 18:46 23.09387 58.25550 39090 ft 477 kts 124°
2026-04-25 18:46 22.97920 58.51370 39090 ft 477 kts 107°
2026-04-25 18:47 22.90147 58.78911 39090 ft 477 kts 107°
2026-04-25 18:47 22.82396 59.06256 36995 ft 477 kts 107°
2026-04-25 18:48 22.78477 59.20004 35158 ft 483 kts 107°
2026-04-25 18:48 22.74537 59.33776 35376 ft 466 kts 107°
2026-04-25 18:48 22.70805 59.46780 34998 ft 452 kts 107°
2026-04-25 18:48 22.67085 59.59695 33210 ft 447 kts 107°
2026-04-25 18:49 22.63350 59.72629 30189 ft 455 kts 107°
2026-04-25 18:49 22.59438 59.86121 30000 ft 482 kts 107°
2026-04-25 18:49 22.51358 60.13882 30001 ft 482 kts 108°
2026-04-25 18:50 22.43253 60.41523 30000 ft 482 kts 108°
2026-04-25 18:50 22.35092 60.69157 30000 ft 482 kts 108°
2026-04-25 18:51 22.28284 60.92068 29999 ft 482 kts 108°
2026-04-25 18:51 22.18682 61.24161 30001 ft 482 kts 108°
2026-04-25 18:52 22.10423 61.51562 30003 ft 482 kts 108°
2026-04-25 18:52 22.02136 61.78876 30000 ft 482 kts 108°
2026-04-25 18:53 21.93752 62.06326 30001 ft 482 kts 108°
2026-04-25 18:53 21.81100 62.43902 30001 ft 482 kts 117°
2026-04-25 18:54 21.62677 62.82393 29999 ft 482 kts 117°
2026-04-25 18:55 21.50416 63.07840 29999 ft 482 kts 117°
2026-04-25 18:55 21.38019 63.33446 30000 ft 482 kts 117°
2026-04-25 18:56 21.25694 63.58853 29982 ft 481 kts 116°
2026-04-25 18:56 21.13222 63.84366 29995 ft 482 kts 117°
2026-04-25 18:57 21.00755 64.09726 30021 ft 482 kts 118°
2026-04-25 18:57 20.88261 64.35023 30001 ft 482 kts 118°
2026-04-25 18:58 20.75748 64.60259 30000 ft 482 kts 118°
2026-04-25 18:58 20.56854 64.98264 30000 ft 482 kts 118°
2026-04-25 18:59 20.31976 65.48737 29997 ft 461 kts 117°
2026-04-25 19:00 20.19828 65.73261 30001 ft 485 kts 118°
2026-04-25 19:00 20.13515 65.85968 30000 ft 485 kts 118°
2026-04-25 19:01 19.94502 66.24062 30001 ft 485 kts 118°
2026-04-25 19:01 19.81812 66.49358 30000 ft 485 kts 118°
2026-04-25 19:02 19.62730 66.87187 30000 ft 485 kts 118°
2026-04-25 19:03 19.47815 67.16470 30001 ft 485 kts 118°
2026-04-25 19:03 19.30656 67.50169 30000 ft 485 kts 118°
2026-04-25 19:04 19.11425 67.87681 30000 ft 485 kts 118°
2026-04-25 19:05 18.85902 68.38031 30001 ft 485 kts 118°
2026-04-25 19:06 18.73160 68.63160 30001 ft 485 kts 118°
2026-04-25 19:06 18.53981 69.00792 30000 ft 485 kts 118°
2026-04-25 19:07 18.35105 69.38322 30000 ft 485 kts 115°
2026-04-25 19:08 18.17395 69.76698 30000 ft 485 kts 116°
2026-04-25 19:09 17.97598 70.19142 29999 ft 485 kts 116°
2026-04-25 19:10 17.74608 70.68097 30001 ft 485 kts 116°
2026-04-25 19:10 17.62610 70.93470 29999 ft 485 kts 116°
2026-04-25 19:11 17.50573 71.18822 29999 ft 485 kts 116°
2026-04-25 19:11 17.40247 71.40491 30000 ft 485 kts 117°
2026-04-25 19:12 17.31660 71.58379 29998 ft 485 kts 117°
2026-04-25 19:12 17.17520 71.87881 30001 ft 485 kts 117°
2026-04-25 19:13 17.07443 72.08853 30000 ft 485 kts 116°
2026-04-25 19:13 16.95555 72.34195 30000 ft 485 kts 116°
2026-04-25 19:14 16.83613 72.59498 29999 ft 485 kts 116°
2026-04-25 19:14 16.71647 72.84751 30000 ft 485 kts 116°
2026-04-25 19:15 16.59714 73.09837 30000 ft 485 kts 116°
2026-04-25 19:15 16.44112 73.41402 29997 ft 486 kts 117°
2026-04-25 19:16 16.26248 73.78106 29998 ft 486 kts 117°
2026-04-25 19:16 16.14021 74.03417 30001 ft 490 kts 116°
2026-04-25 19:17 16.01770 74.28802 30001 ft 490 kts 117°
2026-04-25 19:17 15.89592 74.53935 30001 ft 491 kts 117°
2026-04-25 19:18 15.76908 74.78982 30000 ft 490 kts 118°
2026-04-25 19:18 15.64004 75.03895 30000 ft 489 kts 118°
2026-04-25 19:19 15.51062 75.28798 29999 ft 489 kts 118°
2026-04-25 19:19 15.38107 75.53641 29999 ft 490 kts 118°
2026-04-25 19:20 15.21779 75.84918 30002 ft 489 kts 118°
2026-04-25 19:20 15.08970 76.09735 30000 ft 489 kts 117°
2026-04-25 19:21 14.96603 76.34619 30000 ft 489 kts 117°
2026-04-25 19:21 14.77833 76.72153 29999 ft 489 kts 117°
2026-04-25 19:22 14.65318 76.97078 30000 ft 489 kts 117°
2026-04-25 19:23 14.49581 77.35765 30000 ft 489 kts 110°
2026-04-25 19:23 14.35203 77.75126 29999 ft 488 kts 111°
2026-04-25 19:24 14.25568 78.01370 29999 ft 489 kts 111°
2026-04-25 19:25 14.06254 78.53681 29999 ft 488 kts 111°
2026-04-25 19:25 13.93388 78.78317 29999 ft 488 kts 121°
2026-04-25 19:26 13.79362 79.02275 30000 ft 488 kts 121°
2026-04-25 19:26 13.65299 79.26223 30000 ft 488 kts 121°
2026-04-25 19:27 13.53645 79.46020 29992 ft 485 kts 121°
2026-04-25 19:27 13.49989 79.52222 29409 ft 470 kts 121°
2026-04-25 19:27 13.48295 79.55092 28566 ft 470 kts 121°
2026-04-25 19:28 13.46598 79.57967 27587 ft 471 kts 121°
2026-04-25 19:28 13.44900 79.60844 26797 ft 468 kts 121°
2026-04-25 19:28 13.43199 79.63650 26526 ft 453 kts 124°
2026-04-25 19:28 13.41314 79.66164 26351 ft 436 kts 131°
2026-04-25 19:29 13.39284 79.68405 26195 ft 420 kts 133°
2026-04-25 19:29 13.37318 79.70557 26038 ft 405 kts 133°
2026-04-25 19:29 13.35453 79.72606 25914 ft 391 kts 133°
2026-04-25 19:29 13.33628 79.74613 25785 ft 377 kts 133°
2026-04-25 19:30 13.31860 79.76556 25513 ft 369 kts 133°
2026-04-25 19:30 13.30114 79.78474 25050 ft 366 kts 133°
2026-04-25 19:30 13.28379 79.80377 24577 ft 364 kts 133°
2026-04-25 19:30 13.26653 79.82270 24140 ft 360 kts 133°
2026-04-25 19:31 13.24963 79.84123 23694 ft 358 kts 133°
2026-04-25 19:31 13.23271 79.85977 23243 ft 355 kts 133°
2026-04-25 19:31 13.21588 79.87822 22795 ft 353 kts 133°
2026-04-25 19:31 13.19914 79.89656 22354 ft 350 kts 133°
2026-04-25 19:32 13.18249 79.91481 21906 ft 348 kts 133°
2026-04-25 19:32 13.16601 79.93286 21465 ft 345 kts 133°
2026-04-25 19:32 13.14964 79.95078 21030 ft 343 kts 133°
2026-04-25 19:32 13.13877 79.96268 20739 ft 341 kts 133°
2026-04-25 19:33 13.11711 79.98638 19843 ft 348 kts 133°
2026-04-25 19:33 13.10023 80.00485 18996 ft 357 kts 133°
2026-04-25 19:33 13.08289 80.02382 18089 ft 367 kts 133°
2026-04-25 19:33 13.06811 80.04506 17112 ft 376 kts 116°
2026-04-25 19:34 13.06016 80.07084 16055 ft 386 kts 98°
2026-04-25 19:34 13.06007 80.09856 14907 ft 395 kts 81°
2026-04-25 19:34 13.06789 80.12597 13663 ft 404 kts 65°
2026-04-25 19:34 13.08144 80.15139 12669 ft 406 kts 59°
2026-04-25 19:35 13.09528 80.17654 11880 ft 402 kts 62°
2026-04-25 19:35 13.10762 80.20211 11128 ft 397 kts 65°
2026-04-25 19:35 13.11838 80.22770 10769 ft 382 kts 68°
2026-04-25 19:35 13.12804 80.25262 10203 ft 374 kts 69°
2026-04-25 19:36 13.13736 80.27748 9507 ft 366 kts 69°
2026-04-25 19:36 13.14631 80.30075 9163 ft 345 kts 68°
2026-04-25 19:36 13.15214 80.32465 8227 ft 351 kts 86°
2026-04-25 19:36 13.14938 80.34973 7200 ft 360 kts 107°
2026-04-25 19:37 13.13804 80.37264 6257 ft 364 kts 127°
2026-04-25 19:37 13.11954 80.39042 5376 ft 366 kts 147°
2026-04-25 19:37 13.09638 80.40061 4651 ft 362 kts 167°
2026-04-25 19:37 13.07150 80.40205 3935 ft 357 kts 187°
2026-04-25 19:38 13.04804 80.39445 3330 ft 350 kts 209°
2026-04-25 19:38 13.02985 80.37894 3069 ft 334 kts 232°
2026-04-25 19:38 13.01960 80.35846 2990 ft 313 kts 256°
2026-04-25 19:38 13.01855 80.33713 2999 ft 292 kts 280°
2026-04-25 19:39 13.02372 80.31795 2998 ft 273 kts 286°
2026-04-25 19:39 13.02754 80.29949 2998 ft 256 kts 276°
2026-04-25 19:39 13.02766 80.28183 2998 ft 240 kts 264°
2026-04-25 19:39 13.02489 80.26553 2997 ft 225 kts 256°
2026-04-25 19:40 13.02050 80.25063 2996 ft 211 kts 251°
2026-04-25 19:40 13.01562 80.23693 2913 ft 202 kts 249°
2026-04-25 19:40 13.01026 80.22295 2143 ft 221 kts 248°
2026-04-25 19:40 13.00423 80.20794 1189 ft 235 kts 248°
2026-04-25 19:41 12.99839 80.19189 301 ft 241 kts 251°
2026-04-25 19:41 12.99308 80.17659 54 ft 183 kts 250°
2026-04-25 19:41 12.99049 80.16957 53 ft 45 kts 247°
2026-04-25 19:41 12.99024 80.16896 50 ft 13 kts 246°
2026-04-25 19:42 12.99021 80.16889 50 ft 0 kts 246°
2026-04-25 19:42 12.99020 80.16886 51 ft 1 kts 246°
2026-04-25 19:43 12.99010 80.16862 52 ft 6 kts 246°
2026-04-25 19:43 12.98986 80.16813 50 ft 9 kts 245°
2026-04-25 19:43 12.98958 80.16742 51 ft 12 kts 248°
2026-04-25 19:43 12.98925 80.16655 52 ft 14 kts 248°
2026-04-25 19:44 12.98884 80.16551 53 ft 17 kts 250°
2026-04-25 19:44 12.98829 80.16436 50 ft 19 kts 227°
2026-04-25 19:44 12.98724 80.16342 52 ft 21 kts 218°
2026-04-25 19:44 12.98682 80.16309 51 ft 0 kts 218°
2026-04-25 19:45 12.98681 80.16308 51 ft 1 kts 218°
2026-04-25 19:45 12.98660 80.16291 51 ft 6 kts 217°
2026-04-25 19:45 12.98614 80.16257 48 ft 10 kts 217°
2026-04-25 19:46 12.98556 80.16201 50 ft 13 kts 240°
2026-04-25 19:46 12.98502 80.16127 53 ft 14 kts 201°
2026-04-25 19:46 12.98422 80.16160 52 ft 14 kts 157°
2026-04-25 19:46 12.98365 80.16229 52 ft 10 kts 143°
2026-04-25 19:47 12.98359 80.16230 54 ft 2 kts 171°
2026-04-25 19:47 12.98334 80.16237 55 ft 6 kts 160°
2026-04-25 19:47 12.98316 80.16244 51 ft 0 kts 160°